Total_Precipitation_Accumulation
0.36 0.23 0.17 0.14 0.08 0.04 0.02 0.01 0.00 0.00 0.00 0.00 0.00 0.01 0.00 0.00 0.01 0.03 0.06 0.12 0.15 0.12 0.10 0.11 0.08 0.03 0.04 0.08 0.13 0.20 0.26 0.34 0.44 0.43 0.33 0.28 0.23 0.16 0.12 0.08 0.07 0.03 0.02
0.46 0.35 0.18 0.17 0.11 0.04 0.02 0.01 0.00 0.00 0.00 0.00 0.00 0.00 0.00 0.00 0.00 0.01 0.02 0.07 0.16 0.17 0.19 0.24 0.20 0.11 0.09 0.12 0.14 0.18 0.23 0.26 0.33 0.38 0.36 0.32 0.31 0.25 0.20 0.16 0.14 0.08 0.05
0.53 0.42 0.24 0.18 0.15 0.10 0.07 0.04 0.02 0.01 0.01 0.01 0.00 0.00 0.00 0.00 0.00 0.00 0.00 0.02 0.08 0.18 0.27 0.38 0.38 0.28 0.18 0.16 0.14 0.14 0.17 0.20 0.24 0.31 0.36 0.34 0.30 0.27 0.23 0.20 0.19 0.15 0.13
0.58 0.53 0.39 0.28 0.28 0.26 0.20 0.14 0.07 0.03 0.02 0.01 0.00 0.00 0.00 0.00 0.00 0.00 0.00 0.01 0.03 0.09 0.19 0.30 0.43 0.54 0.38 0.20 0.13 0.11 0.10 0.12 0.14 0.19 0.24 0.23 0.20 0.19 0.19 0.21 0.24 0.25 0.23
0.65 0.74 0.71 0.60 0.52 0.49 0.36 0.22 0.13 0.08 0.05 0.04 0.01 0.00 0.00 0.00 0.00 0.00 0.00 0.00 0.01 0.03 0.07 0.10 0.20 0.30 0.29 0.30 0.26 0.14 0.09 0.08 0.08 0.09 0.11 0.11 0.10 0.12 0.16 0.19 0.23 0.24 0.23
0.95 1.02 0.97 0.85 0.79 0.72 0.55 0.42 0.34 0.21 0.13 0.09 0.02 0.01 0.00 0.00 0.00 0.00 0.00 0.00 0.00 0.01 0.01 0.02 0.07 0.05 0.09 0.23 0.23 0.10 0.06 0.06 0.06 0.05 0.06 0.06 0.06 0.07 0.10 0.15 0.17 0.18 0.20
1.23 1.29 1.31 1.22 1.08 0.91 0.82 0.76 0.75 0.55 0.34 0.17 0.12 0.08 0.04 0.01 0.00 0.00 0.00 0.00 0.00 0.01 0.00 0.01 0.03 0.04 0.04 0.03 0.05 0.08 0.10 0.11 0.09 0.06 0.04 0.03 0.04 0.04 0.05 0.08 0.11 0.13 0.15
1.37 1.39 1.51 1.56 1.41 1.27 1.24 1.09 1.06 0.99 0.72 0.43 0.39 0.43 0.30 0.21 0.08 0.02 0.01 0.01 0.00 0.01 0.01 0.01 0.01 0.02 0.02 0.04 0.02 0.03 0.06 0.10 0.09 0.05 0.03 0.03 0.03 0.02 0.02 0.03 0.06 0.08 0.10
1.56 1.49 1.55 1.66 1.57 1.45 1.38 1.40 1.42 1.45 1.21 0.90 0.67 0.66 0.54 0.46 0.41 0.12 0.03 0.03 0.02 0.01 0.01 0.01 0.02 0.03 0.02 0.02 0.02 0.01 0.01 0.02 0.05 0.05 0.05 0.03 0.03 0.03 0.04 0.04 0.04 0.05 0.06
1.51 1.45 1.53 1.67 1.70 1.71 1.68 1.67 1.52 1.55 1.53 1.25 1.09 0.82 0.63 0.55 0.57 0.46 0.20 0.07 0.05 0.03 0.02 0.02 0.02 0.02 0.02 0.02 0.02 0.02 0.01 0.01 0.03 0.05 0.05 0.05 0.04 0.03 0.04 0.04 0.04 0.05 0.05
1.59 1.47 1.47 1.52 1.52 1.53 1.58 1.62 1.52 1.53 1.50 1.49 1.41 1.23 1.00 0.84 0.55 0.50 0.50 0.30 0.13 0.05 0.03 0.02 0.03 0.03 0.02 0.03 0.05 0.02 0.01 0.01 0.02 0.05 0.05 0.05 0.05 0.04 0.04 0.03 0.03 0.04 0.04
1.54 1.43 1.36 1.40 1.43 1.38 1.43 1.47 1.44 1.50 1.46 1.43 1.39 1.25 1.15 1.08 0.96 0.76 0.62 0.51 0.38 0.19 0.08 0.05 0.05 0.06 0.06 0.06 0.07 0.07 0.02 0.01 0.02 0.04 0.06 0.06 0.05 0.04 0.04 0.03 0.03 0.04 0.05
1.17 1.15 1.07 1.08 1.14 1.17 1.29 1.26 1.14 1.11 1.17 1.21 1.22 1.19 1.17 1.12 1.09 0.98 0.88 0.74 0.55 0.30 0.16 0.09 0.06 0.07 0.09 0.08 0.10 0.12 0.04 0.03 0.02 0.03 0.04 0.04 0.04 0.04 0.04 0.04 0.05 0.05 0.05
0.79 0.76 0.76 0.74 0.76 0.79 0.93 1.06 0.98 0.93 0.90 0.92 0.93 0.96 0.98 1.04 1.09 0.94 0.86 0.84 0.72 0.55 0.35 0.20 0.11 0.07 0.07 0.08 0.12 0.12 0.05 0.04 0.03 0.03 0.03 0.03 0.02 0.03 0.04 0.04 0.05 0.05 0.06
0.54 0.52 0.52 0.55 0.56 0.57 0.64 0.70 0.81 0.80 0.72 0.71 0.73 0.78 0.75 0.75 0.79 0.78 0.81 0.78 0.68 0.57 0.52 0.40 0.24 0.13 0.10 0.08 0.09 0.07 0.05 0.05 0.04 0.04 0.03 0.02 0.02 0.02 0.03 0.02 0.02 0.03 0.03
0.50 0.48 0.43 0.38 0.39 0.40 0.49 0.56 0.56 0.58 0.56 0.59 0.62 0.67 0.69 0.69 0.67 0.63 0.69 0.78 0.72 0.56 0.48 0.43 0.33 0.24 0.21 0.14 0.15 0.11 0.09 0.10 0.06 0.05 0.03 0.03 0.02 0.02 0.02 0.02 0.02 0.01 0.01
0.39 0.38 0.35 0.35 0.32 0.31 0.33 0.33 0.34 0.36 0.36 0.37 0.35 0.37 0.45 0.54 0.59 0.60 0.61 0.68 0.74 0.66 0.52 0.52 0.39 0.36 0.37 0.29 0.26 0.18 0.12 0.11 0.09 0.07 0.05 0.04 0.03 0.03 0.03 0.03 0.02 0.01 0.01
0.33 0.34 0.34 0.35 0.35 0.37 0.36 0.34 0.31 0.28 0.30 0.30 0.26 0.23 0.25 0.32 0.39 0.47 0.54 0.58 0.63 0.69 0.64 0.63 0.59 0.47 0.44 0.41 0.40 0.35 0.24 0.20 0.19 0.19 0.19 0.11 0.07 0.04 0.04 0.03 0.02 0.01 0.01
0.43 0.42 0.45 0.50 0.49 0.49 0.47 0.45 0.42 0.38 0.34 0.31 0.28 0.27 0.27 0.28 0.31 0.37 0.48 0.58 0.61 0.64 0.66 0.61 0.65 0.64 0.51 0.47 0.41 0.35 0.29 0.31 0.28 0.23 0.29 0.26 0.21 0.15 0.12 0.10 0.08 0.05 0.04
0.48 0.46 0.52 0.59 0.66 0.71 0.70 0.64 0.59 0.52 0.45 0.40 0.36 0.32 0.27 0.26 0.32 0.44 0.55 0.63 0.64 0.63 0.65 0.66 0.68 0.69 0.59 0.49 0.43 0.41 0.43 0.46 0.39 0.28 0.22 0.24 0.24 0.21 0.18 0.16 0.15 0.13 0.12
0.43 0.43 0.49 0.56 0.63 0.72 0.76 0.73 0.59 0.49 0.47 0.45 0.39 0.34 0.31 0.31 0.29 0.37 0.48 0.67 0.68 0.71 0.70 0.71 0.70 0.63 0.54 0.44 0.42 0.45 0.44 0.49 0.42 0.37 0.32 0.26 0.27 0.26 0.24 0.23 0.22 0.21 0.19
0.37 0.38 0.42 0.37 0.38 0.43 0.57 0.52 0.40 0.34 0.37 0.42 0.42 0.38 0.36 0.32 0.28 0.26 0.26 0.40 0.54 0.64 0.71 0.68 0.67 0.63 0.57 0.50 0.52 0.47 0.39 0.36 0.33 0.38 0.33 0.33 0.30 0.29 0.32 0.31 0.36 0.40 0.35
0.33 0.35 0.30 0.24 0.22 0.26 0.29 0.25 0.28 0.34 0.34 0.34 0.39 0.46 0.48 0.41 0.40 0.40 0.31 0.29 0.31 0.35 0.42 0.48 0.55 0.56 0.56 0.51 0.48 0.45 0.41 0.37 0.31 0.29 0.25 0.25 0.25 0.25 0.27 0.26 0.25 0.26 0.26
0.28 0.35 0.29 0.25 0.26 0.22 0.24 0.26 0.26 0.30 0.39 0.40 0.40 0.41 0.50 0.52 0.51 0.55 0.48 0.49 0.40 0.32 0.31 0.31 0.37 0.39 0.37 0.42 0.46 0.52 0.49 0.34 0.23 0.19 0.16 0.14 0.16 0.16 0.14 0.15 0.15 0.13 0.13
0.19 0.17 0.21 0.34 0.33 0.28 0.33 0.31 0.24 0.28 0.36 0.41 0.39 0.42 0.50 0.56 0.68 0.68 0.65 0.62 0.49 0.38 0.38 0.43 0.44 0.41 0.41 0.43 0.45 0.47 0.44 0.37 0.30 0.27 0.23 0.17 0.14 0.12 0.09 0.09 0.08 0.08 0.07
0.09 0.09 0.12 0.22 0.28 0.29 0.28 0.18 0.19 0.28 0.34 0.41 0.44 0.44 0.60 0.59 0.64 0.61 0.58 0.63 0.60 0.45 0.37 0.41 0.40 0.38 0.34 0.37 0.44 0.48 0.54 0.54 0.45 0.37 0.30 0.23 0.21 0.20 0.18 0.14 0.09 0.06 0.05